Previsão horária em Abdulgazino

Hoje, 17 Abril, Sábado

Tempo Temperatura Precipitação Vento Pressão Humidade
00:00 +7°C° 0 mm 3 m/s 715 mmHg 92%
01:00 +5°C° 0 mm 3 m/s 715 mmHg 92%
02:00 +6°C° 0 mm 2 m/s 715 mmHg 93%
03:00 +6°C° 0 mm 2 m/s 715 mmHg 94%
04:00 +6°C° 0 mm 2 m/s 715 mmHg 95%
05:00 +6°C° 0 mm 2 m/s 715 mmHg 94%
06:00 +7°C° 0 mm 1 m/s 715 mmHg 93%
07:00 +7°C° 0 mm 1 m/s 715 mmHg 92%
08:00 +8°C° 0 mm 1 m/s 715 mmHg 87%
09:00 +9°C° 0 mm 1 m/s 715 mmHg 83%
10:00 +9°C° 0 mm 2 m/s 715 mmHg 78%
11:00 +10°C° 0 mm 2 m/s 715 mmHg 73%
12:00 +13°C° 0 mm 2 m/s 715 mmHg 67%
13:00 +14°C° 0 mm 2 m/s 715 mmHg 62%
14:00 +14°C° 0 mm 2 m/s 714 mmHg 59%
15:00 +15°C° 0 mm 2 m/s 714 mmHg 56%
16:00 +15°C° 0 mm 2 m/s 714 mmHg 53%
17:00 +14°C° 0 mm 2 m/s 714 mmHg 59%
18:00 +13°C° 0 mm 1 m/s 713 mmHg 64%
19:00 +11°C° 0 mm 1 m/s 713 mmHg 69%
20:00 +11°C° 0 mm 1 m/s 713 mmHg 72%
21:00 +10°C° 0 mm 1 m/s 713 mmHg 74%
22:00 +10°C° 0 mm 1 m/s 713 mmHg 77%
23:00 +9°C° 0 mm 1 m/s 712 mmHg 79%

Amanhã, 18 Abril, Domingo

Tempo Temperatura Precipitação Vento Pressão Humidade
00:00 +9°C° 0 mm 1 m/s 712 mmHg 82%
01:00 +8°C° 0 mm 1 m/s 712 mmHg 85%
02:00 +7°C° 0 mm 1 m/s 712 mmHg 87%
03:00 +7°C° 0 mm 1 m/s 712 mmHg 89%
04:00 +5°C° 0 mm 0 m/s 712 mmHg 91%
05:00 +6°C° 0 mm 0 m/s 712 mmHg 89%
06:00 +6°C° 0 mm 0 m/s 712 mmHg 87%
07:00 +8°C° 0 mm 1 m/s 712 mmHg 85%
08:00 +9°C° 0 mm 1 m/s 712 mmHg 77%
09:00 +11°C° 0 mm 1 m/s 712 mmHg 69%
10:00 +12°C° 0 mm 1 m/s 712 mmHg 61%
11:00 +12°C° 0 mm 2 m/s 712 mmHg 56%
12:00 +13°C° 0 mm 2 m/s 712 mmHg 50%
13:00 +13°C° 0 mm 2 m/s 712 mmHg 44%
14:00 +12°C° 0 mm 3 m/s 712 mmHg 44%
15:00 +12°C° 0 mm 3 m/s 712 mmHg 44%
16:00 +12°C° 0 mm 3 m/s 712 mmHg 44%
17:00 +10°C° 0 mm 4 m/s 713 mmHg 54%
18:00 +7°C° 0 mm 5 m/s 713 mmHg 65%
19:00 +3°C° 0 mm 6 m/s 714 mmHg 75%
20:00 +2°C° 0 mm 6 m/s 714 mmHg 78%
21:00 0°C° 0 mm 7 m/s 715 mmHg 81%
22:00 -2°C° 0 mm 7 m/s 715 mmHg 84%
23:00 -2°C° 0 mm 7 m/s 716 mmHg 78%

Depois de amanhã, 19 Abril, Segunda-feira

Tempo Temperatura Precipitação Vento Pressão Humidade
00:00 -3°C° 0 mm 7 m/s 716 mmHg 72%
01:00 -3°C° 0 mm 7 m/s 716 mmHg 66%
02:00 -4°C° 0 mm 7 m/s 717 mmHg 65%
03:00 -4°C° 0 mm 7 m/s 717 mmHg 63%
04:00 -5°C° 0 mm 6 m/s 717 mmHg 62%
05:00 -6°C° 0 mm 7 m/s 718 mmHg 60%
06:00 -6°C° 0 mm 7 m/s 718 mmHg 58%
07:00 -6°C° 0 mm 7 m/s 718 mmHg 56%
08:00 -6°C° 0 mm 7 m/s 718 mmHg 51%
09:00 -4°C° 0 mm 7 m/s 719 mmHg 47%
10:00 -4°C° 0 mm 7 m/s 719 mmHg 42%
11:00 -3°C° 0 mm 7 m/s 719 mmHg 39%
12:00 -2°C° 0 mm 7 m/s 719 mmHg 37%
13:00 -2°C° 0 mm 6 m/s 719 mmHg 34%
14:00 -2°C° 0 mm 6 m/s 719 mmHg 34%
15:00 -2°C° 0 mm 6 m/s 719 mmHg 34%
16:00 -2°C° 0 mm 6 m/s 719 mmHg 33%
17:00 -2°C° 0 mm 6 m/s 719 mmHg 36%
18:00 -2°C° 0 mm 5 m/s 719 mmHg 38%
19:00 -4°C° 0 mm 5 m/s 720 mmHg 40%
20:00 -4°C° 0 mm 5 m/s 720 mmHg 43%
21:00 -5°C° 0 mm 5 m/s 720 mmHg 45%
22:00 -6°C° 0 mm 5 m/s 720 mmHg 47%
23:00 -6°C° 0 mm 5 m/s 721 mmHg 48%

20 Abril, Terça-feira

Tempo Temperatura Precipitação Vento Pressão Humidade
00:00 -5°C° 0 mm 4 m/s 721 mmHg 49%
01:00 -5°C° 0 mm 4 m/s 721 mmHg 50%
02:00 -7°C° 0 mm 4 m/s 721 mmHg 51%
03:00 -7°C° 0 mm 4 m/s 721 mmHg 52%
04:00 -7°C° 0 mm 4 m/s 721 mmHg 53%
05:00 -7°C° 0 mm 4 m/s 722 mmHg 49%
06:00 -7°C° 0 mm 5 m/s 722 mmHg 46%
07:00 -6°C° 0 mm 5 m/s 722 mmHg 43%
08:00 -5°C° 0 mm 5 m/s 722 mmHg 39%
09:00 -4°C° 0 mm 5 m/s 722 mmHg 35%
10:00 -2°C° 0 mm 4 m/s 722 mmHg 30%
11:00 -1°C° 0 mm 4 m/s 722 mmHg 29%
12:00 0°C° 0 mm 4 m/s 722 mmHg 28%
13:00 +3°C° 0 mm 4 m/s 722 mmHg 28%
14:00 +3°C° 0 mm 3 m/s 722 mmHg 28%
15:00 +3°C° 0 mm 3 m/s 722 mmHg 28%
16:00 +4°C° 0 mm 2 m/s 722 mmHg 29%
17:00 +3°C° 0 mm 2 m/s 721 mmHg 34%
18:00 +3°C° 0 mm 1 m/s 721 mmHg 40%
19:00 +1°C° 0 mm 1 m/s 721 mmHg 45%
20:00 +1°C° 0 mm 1 m/s 721 mmHg 47%
21:00 0°C° 0 mm 1 m/s 721 mmHg 48%
22:00 0°C° 0 mm 1 m/s 721 mmHg 50%
23:00 -1°C° 0 mm 1 m/s 721 mmHg 50%

21 Abril, Quarta-feira

Tempo Temperatura Precipitação Vento Pressão Humidade
00:00 -2°C° 0 mm 0 m/s 722 mmHg 51%
01:00 -2°C° 0 mm 0 m/s 722 mmHg 51%
02:00 -2°C° 0 mm 0 m/s 722 mmHg 51%
03:00 -2°C° 0 mm 0 m/s 722 mmHg 51%
04:00 -2°C° 0 mm 0 m/s 722 mmHg 51%
05:00 -1°C° 0 mm 0 m/s 722 mmHg 47%
06:00 +1°C° 0 mm 1 m/s 722 mmHg 43%
07:00 +2°C° 0 mm 1 m/s 722 mmHg 39%
08:00 +4°C° 0 mm 1 m/s 722 mmHg 35%
09:00 +6°C° 0 mm 1 m/s 722 mmHg 30%
10:00 +6°C° 0 mm 2 m/s 722 mmHg 26%
11:00 +7°C° 0 mm 2 m/s 722 mmHg 26%
12:00 +8°C° 0 mm 2 m/s 722 mmHg 26%
13:00 +9°C° 0 mm 2 m/s 722 mmHg 26%
14:00 +9°C° 0 mm 2 m/s 722 mmHg 27%
15:00 +10°C° 0 mm 2 m/s 722 mmHg 28%
16:00 +10°C° 0 mm 3 m/s 721 mmHg 28%
17:00 +8°C° 0 mm 2 m/s 722 mmHg 35%
18:00 +7°C° 0 mm 2 m/s 722 mmHg 42%
19:00 +5°C° 0 mm 2 m/s 722 mmHg 49%
20:00 +5°C° 0 mm 1 m/s 722 mmHg 51%
21:00 +4°C° 0 mm 1 m/s 722 mmHg 52%
22:00 +3°C° 0 mm 1 m/s 722 mmHg 54%
23:00 +3°C° 0 mm 1 m/s 722 mmHg 55%

22 Abril, Quinta-feira

Tempo Temperatura Precipitação Vento Pressão Humidade
00:00 +3°C° 0 mm 1 m/s 722 mmHg 55%
01:00 +2°C° 0 mm 1 m/s 722 mmHg 55%
02:00 +2°C° 0 mm 1 m/s 723 mmHg 55%
03:00 +2°C° 0 mm 1 m/s 723 mmHg 56%
04:00 +2°C° 0 mm 1 m/s 723 mmHg 56%
05:00 +3°C° 0 mm 1 m/s 723 mmHg 53%
06:00 +4°C° 0 mm 1 m/s 723 mmHg 50%
07:00 +5°C° 0 mm 1 m/s 723 mmHg 47%
08:00 +6°C° 0 mm 2 m/s 723 mmHg 43%
09:00 +7°C° 0 mm 2 m/s 723 mmHg 39%
10:00 +9°C° 0 mm 3 m/s 723 mmHg 35%
11:00 +10°C° 0 mm 3 m/s 723 mmHg 34%
12:00 +11°C° 0 mm 4 m/s 723 mmHg 33%
13:00 +11°C° 0 mm 4 m/s 723 mmHg 32%
14:00 +11°C° 0 mm 4 m/s 723 mmHg 33%
15:00 +11°C° 0 mm 4 m/s 723 mmHg 34%
16:00 +11°C° 0 mm 4 m/s 723 mmHg 35%
17:00 +10°C° 0 mm 3 m/s 723 mmHg 41%
18:00 +9°C° 0 mm 2 m/s 723 mmHg 47%
19:00 +8°C° 0 mm 2 m/s 723 mmHg 52%
20:00 +8°C° 0 mm 1 m/s 723 mmHg 53%
21:00 +7°C° 0 mm 1 m/s 723 mmHg 55%
22:00 +7°C° 0 mm 1 m/s 722 mmHg 56%
23:00 +6°C° 0 mm 1 m/s 722 mmHg 57%
Mostrar mais